Date String (YYYY-MM-DD hh:mm:ss) UTC,Instrument flags,absolute air pressure of the measurement (hPa),sample flow rate (lpm),inlet stack bypass flow (lpm),air temperature of the measurement (°C),ambient temperature measured by the external sensor (°C),aerosol sample conditioner tube jacket temperature (°C),OPC LED temperature (°C),internal box temperature (°C),relative humidity of the measurement (%),span deviation,mass concentration of particles derived from Lorenz-Mie calculation of OPC scattering (μg/m³),mass concentration of particles derived from Lorenz-Mie calculation of OPC scattering (μg/m³),mass concentration of particles derived from Lorenz-Mie calculation of OPC scattering (μg/m³)
DateTimeUTC,F1_M11,P_M11,Q1_M11,Q2_M11,T1_M11,T2_M11,T3_M11,T4_M11,T5_M11,U1_M11,ZSPAN_M11,X0_M11,X2_M11,X1_M11
2023-08-14 01:00:00,SystemResetWarning,0838.3,5.01,000.00,029.4,028.1,000.0,037.8,031.1,25.8,0000.0,0010.19,0003.85,0003.26
2023-08-14 01:01:00,SystemResetWarning,0838.4,4.99,000.00,029.4,028.2,000.0,037.8,031.2,25.7,0000.0,0010.43,0003.85,0003.26
2023-08-14 01:02:00,SystemResetWarning,0838.4,4.99,000.00,029.5,028.3,000.0,037.9,031.2,25.5,0000.0,0009.86,0003.86,0003.25
2023-08-14 01:03:00,SystemResetWarning,0838.4,5.00,000.00,029.5,027.4,000.0,037.8,031.1,25.1,0000.0,0009.43,0003.81,0003.23
2023-08-14 01:04:00,SystemResetWarning,0838.4,5.00,000.00,029.4,025.8,000.0,037.7,030.7,25.1,0000.0,0009.52,0003.79,0003.22
2023-08-14 01:05:00,SystemResetWarning,0838.4,5.01,000.00,029.3,025.5,000.0,037.6,030.5,25.4,0000.0,0009.86,0003.78,0003.22
2023-08-14 01:06:00,SystemResetWarning,0838.4,5.01,000.00,029.2,025.7,000.0,037.6,030.4,25.9,0000.0,0010.09,0003.78,0003.21
2023-08-14 01:07:00,SystemResetWarning,0838.4,5.00,000.00,029.2,026.1,000.0,037.7,030.6,26.0,0000.0,0009.96,0003.81,0003.21
2023-08-14 01:08:00,SystemResetWarning,0838.4,5.00,000.00,029.2,026.5,000.0,037.7,030.7,25.5,0000.0,0010.15,0003.80,0003.21
2023-08-14 01:09:00,SystemResetWarning,0838.5,5.00,000.00,029.2,026.9,000.0,037.7,030.8,25.4,0000.0,0010.30,0003.80,0003.21
2023-08-14 01:10:00,SystemResetWarning,0838.5,5.01,000.00,029.2,027.2,000.0,037.7,030.9,25.4,0000.0,0010.43,0003.80,0003.20
2023-08-14 01:11:00,SystemResetWarning,0838.6,5.00,000.00,029.3,027.5,000.0,037.8,030.9,25.5,0000.0,0010.56,0003.79,0003.19
2023-08-14 01:12:00,SystemResetWarning,0838.6,5.00,000.00,029.3,027.7,000.0,037.8,031.0,25.5,0000.0,0010.72,0003.73,0003.19
2023-08-14 01:13:00,SystemResetWarning,0838.6,4.99,000.00,029.3,027.9,000.0,037.8,031.0,25.3,0000.0,0010.57,0003.73,0003.19
2023-08-14 01:14:00,SystemResetWarning,0838.6,5.00,000.00,029.4,028.1,000.0,037.8,031.1,25.4,0000.0,0010.04,0003.77,0003.20
2023-08-14 01:15:00,SystemResetWarning,0838.6,5.00,000.00,029.4,028.2,000.0,037.8,031.2,25.6,0000.0,0010.50,0003.77,0003.20
2023-08-14 01:16:00,SystemResetWarning,0838.6,5.00,000.00,029.5,028.3,000.0,037.9,031.2,25.4,0000.0,0010.32,0003.76,0003.20
2023-08-14 01:17:00,SystemResetWarning,0838.6,5.00,000.00,029.5,028.1,000.0,037.9,031.2,25.6,0000.0,0010.07,0003.78,0003.21
2023-08-14 01:18:00,SystemResetWarning,0838.6,5.00,000.00,029.5,026.3,000.0,037.7,030.9,25.6,0000.0,0009.38,0003.77,0003.21
2023-08-14 01:19:00,SystemResetWarning,0838.6,5.01,000.00,029.4,025.5,000.0,037.6,030.6,25.7,0000.0,0009.34,0003.78,0003.21
2023-08-14 01:20:00,SystemResetWarning,0838.6,5.01,000.00,029.3,025.6,000.0,037.6,030.4,25.8,0000.0,0009.94,0003.77,0003.21
2023-08-14 01:21:00,SystemResetWarning,0838.6,5.00,000.00,029.2,026.0,000.0,037.7,030.5,25.7,0000.0,0009.82,0003.76,0003.21
2023-08-14 01:22:00,SystemResetWarning,0838.7,5.00,000.00,029.2,026.4,000.0,037.7,030.6,25.6,0000.0,0009.71,0003.77,0003.21
2023-08-14 01:23:00,SystemResetWarning,0838.7,4.99,000.00,029.2,026.7,000.0,037.7,030.8,25.6,0000.0,0009.43,0003.77,0003.22
2023-08-14 01:24:00,SystemResetWarning,0838.7,5.00,000.00,029.2,027.1,000.0,037.7,030.8,25.6,0000.0,0009.45,0003.79,0003.22
2023-08-14 01:25:00,SystemResetWarning,0838.8,4.99,000.00,029.3,027.4,000.0,037.8,030.9,25.6,0000.0,0009.59,0003.80,0003.22
2023-08-14 01:26:00,SystemResetWarning,0838.8,4.99,000.00,029.3,027.6,000.0,037.8,031.0,25.5,0000.0,0009.20,0003.81,0003.22
2023-08-14 01:27:00,SystemResetWarning,0838.8,5.00,000.00,029.3,027.8,000.0,037.8,031.0,25.4,0000.0,0008.78,0003.80,0003.21
2023-08-14 01:28:00,SystemResetWarning,0838.8,5.00,000.00,029.4,028.0,000.0,037.8,031.1,25.5,0000.0,0008.75,0003.78,0003.20
2023-08-14 01:29:00,SystemResetWarning,0838.8,5.00,000.00,029.4,028.1,000.0,037.8,031.1,25.7,0000.0,0008.72,0003.77,0003.18
2023-08-14 01:30:00,SystemResetWarning,0838.8,5.00,000.00,029.4,028.3,000.0,037.9,031.2,25.6,0000.0,0008.88,0003.81,0003.18
2023-08-14 01:31:00,SystemResetWarning,0838.8,5.00,000.00,029.5,028.3,000.0,037.9,031.2,25.5,0000.0,0008.04,0003.80,0003.19
2023-08-14 01:32:00,SystemResetWarning,0838.8,4.99,000.00,029.5,027.0,000.0,037.8,031.0,25.5,0000.0,0008.33,0003.77,0003.18
2023-08-14 01:33:00,SystemResetWarning,0838.8,5.00,000.00,029.4,025.6,000.0,037.7,030.7,25.7,0000.0,0008.53,0003.76,0003.19
2023-08-14 01:34:00,SystemResetWarning,0838.8,5.00,000.00,029.3,025.5,000.0,037.6,030.6,25.6,0000.0,0008.84,0003.77,0003.19
2023-08-14 01:35:00,SystemResetWarning,0838.8,5.01,000.00,029.2,025.8,000.0,037.7,030.5,25.8,0000.0,0009.00,0003.78,0003.18
2023-08-14 01:36:00,SystemResetWarning,0838.8,5.01,000.00,029.2,026.2,000.0,037.7,030.6,25.9,0000.0,0009.03,0003.75,0003.18
2023-08-14 01:37:00,SystemResetWarning,0838.8,4.99,000.00,029.2,026.6,000.0,037.7,030.7,25.8,0000.0,0009.11,0003.76,0003.19
2023-08-14 01:38:00,SystemResetWarning,0838.8,5.00,000.00,029.2,026.9,000.0,037.7,030.8,25.8,0000.0,0009.03,0003.76,0003.20
2023-08-14 01:39:00,SystemResetWarning,0838.8,5.00,000.00,029.2,027.2,000.0,037.7,030.9,25.7,0000.0,0009.00,0003.75,0003.21
2023-08-14 01:40:00,SystemResetWarning,0838.8,5.00,000.00,029.3,027.5,000.0,037.8,030.9,25.7,0000.0,0009.05,0003.75,0003.22
2023-08-14 01:41:00,SystemResetWarning,0838.8,5.00,000.00,029.3,027.7,000.0,037.8,031.0,25.7,0000.0,0008.84,0003.73,0003.21
2023-08-14 01:42:00,SystemResetWarning,0838.9,5.00,000.00,029.3,027.9,000.0,037.8,031.1,25.7,0000.0,0008.75,0003.73,0003.22
2023-08-14 01:43:00,SystemResetWarning,0838.9,5.00,000.00,029.4,028.1,000.0,037.8,031.1,25.7,0000.0,0008.49,0003.78,0003.23
2023-08-14 01:44:00,SystemResetWarning,0838.9,5.00,000.00,029.4,028.2,000.0,037.8,031.1,25.6,0000.0,0008.17,0003.81,0003.23
2023-08-14 01:45:00,SystemResetWarning,0838.9,5.01,000.00,029.5,028.3,000.0,037.9,031.2,25.5,0000.0,0008.24,0003.82,0003.22
2023-08-14 01:46:00,SystemResetWarning,0838.9,4.99,000.00,029.5,028.4,000.0,037.9,031.2,25.3,0000.0,0008.19,0003.78,0003.22
2023-08-14 01:47:00,SystemResetWarning,0838.9,4.99,000.00,029.5,028.5,000.0,037.9,031.3,25.2,0000.0,0008.60,0003.78,0003.22
2023-08-14 01:48:00,SystemResetWarning,0838.9,5.00,000.00,029.6,028.1,000.0,037.9,031.2,25.0,0000.0,0009.11,0003.80,0003.22
2023-08-14 01:49:00,SystemResetWarning,0838.9,5.00,000.00,029.5,026.3,000.0,037.8,031.0,25.1,0000.0,0010.08,0003.82,0003.21
2023-08-14 01:50:00,SystemResetWarning,0838.8,5.00,000.00,029.5,025.5,000.0,037.7,030.7,25.2,0000.0,0010.25,0003.81,0003.20
2023-08-14 01:51:00,SystemResetWarning,0838.9,5.01,000.00,029.4,025.7,000.0,037.7,030.6,25.4,0000.0,0010.26,0003.80,0003.20
2023-08-14 01:52:00,SystemResetWarning,0838.8,5.01,000.00,029.3,026.0,000.0,037.7,030.6,25.6,0000.0,0010.54,0003.79,0003.20
2023-08-14 01:53:00,SystemResetWarning,0838.9,4.99,000.00,029.3,026.4,000.0,037.8,030.7,25.7,0000.0,0011.00,0003.81,0003.18
2023-08-14 01:54:00,SystemResetWarning,0838.8,5.00,000.00,029.3,026.8,000.0,037.8,030.8,26.0,0000.0,0011.09,0003.79,0003.16
2023-08-14 01:55:00,SystemResetWarning,0838.9,5.01,000.00,029.3,027.1,000.0,037.8,030.9,26.0,0000.0,0011.07,0003.76,0003.16
2023-08-14 01:56:00,SystemResetWarning,0838.9,5.01,000.00,029.3,027.4,000.0,037.8,030.9,25.9,0000.0,0010.60,0003.74,0003.15
2023-08-14 01:57:00,SystemResetWarning,0838.9,5.00,000.00,029.3,027.6,000.0,037.8,031.0,26.0,0000.0,0010.41,0003.75,0003.15
2023-08-14 01:58:00,SystemResetWarning,0838.9,4.99,000.00,029.4,027.8,000.0,037.9,031.0,25.8,0000.0,0010.00,0003.75,0003.14
2023-08-14 01:59:00,SystemResetWarning,0838.9,5.00,000.00,029.4,028.0,000.0,037.9,031.1,25.8,0000.0,0009.75,0003.71,0003.14
